Location: Barrio de Buenos Aires
(28.4500°N, 16.2667°W)
Time: 17:08:24
(UTC+00:00)

CZ-4C R/B - Pass Details

Date: 24 January 2020
Orbit: 644 x 1358 km, 63.4° (Epoch: 21 February)

Event Time Altitude Azimuth Distance (km) Brightness Sun altitude
Rises 18:58:49 0° 331° (NNW) 4,034 5.9 -5.2°
Reaches altitude 10° 19:01:25 10° 331° (NNW) 3,153 5.3 -5.7°
Maximum altitude 19:09:15 88° 243° (WSW) 1,318 3.2 -7.4°
Drops below altitude 10° 19:17:45 10° 155° (SSE) 3,401 5.2 -9.1°
Sets 19:20:39 0° 155° (SSE) 4,365 5.8 -9.8°
